Content
SEND FEEDBACK

Daily
Averages
Monthly
Summary
United States of America

DYERSBURG, TENNESSEE


Home > North America > United States > Tennessee
Elevation: 338 feet     Latitude: 35 59N     Longitude: 089 24W

WEATHER
 
SELECT A DAY
Number of Records: 457,257;   Date Range: 1/1/95 - 12/27/14
 
SHARE

PRINT THIS DATA

[ ← Previous Day ]
WEATHER ALMANAC - JANUARY 31, 2013
[ Next Day → ]
[ °C ]   °F
Weather ElementAverageHighLow
Temperature37 °F50 °F (2:55 pm) (8:35 pm)
Dewpoint20.6 °F28.4 °F (3:35 pm) (7:00 pm)
Humidity51.7 %65 % (9:16 pm)39 % (12:55 pm)
Barometer30.12 in30.35 in (11:35 pm)30.02 in (2:15 am)
Wind Speed11.2 mph19.6 mph (7:35 pm)
Wind Gust27.6 mph (7:15 pm)
Weather ElementAverage
Visibility9.8 mi
Wind DirectionW (269 °)

Weather ElementTotal
Precipitation---
Heating Degree Days40 (Base 65)
Averaged from 59 records on January 31, 2013
WEATHER CONDITIONS BREAKOUT
WIND DIRECTION BREAKOUT
WEATHER BY HOUR - JANUARY 31, 2013
[ °C ]   °F
Local TimeTemperatureDewpointHumidityBarometerVisibilityWind DirectionWind SpeedGust SpeedPrecipitationEventsConditions
12:55 AM33.8 °F17.6 °F52 %30.03 in10.0 miWNW (290°)10.4 mph20.7 mphOvercast
1:15 AM33.8 °F17.6 °F52 %30.03 in10.0 miWNW (300°)15.0 mph20.7 mphOvercast
1:35 AM33.8 °F17.6 °F52 %30.03 in10.0 miWest (280°)8.1 mph18.4 mphOvercast
1:56 AM33.8 °F17.6 °F52 %30.03 in10.0 miWNW (300°)6.9 mphOvercast
2:15 AM32.0 °F17.6 °F55 %30.02 in10.0 miWNW (300°)6.9 mphOvercast
2:35 AM32.0 °F17.6 °F55 %30.04 in10.0 miWest (270°)9.2 mph16.1 mphOvercast
2:55 AM32.0 °F17.6 °F55 %30.04 in10.0 miWest (270°)10.4 mphOvercast
3:15 AM32.0 °F17.6 °F55 %30.05 in10.0 miWest (270°)9.2 mphOvercast
3:35 AM32.0 °F17.6 °F55 %30.04 in10.0 miWest (260°)9.2 mphOvercast
3:55 AM32.0 °F17.6 °F55 %30.04 in10.0 miWest (260°)8.1 mphOvercast
4:16 AM30.2 °F17.6 °F60 %30.04 in10.0 miWSW (250°)8.1 mphOvercast
4:35 AM30.2 °F17.6 °F60 %30.05 in10.0 miWest (270°)9.2 mphMostly Cloudy
4:55 AM30.2 °F17.6 °F60 %30.04 in10.0 miWest (280°)6.9 mphPartly Cloudy
5:15 AM30.2 °F17.6 °F60 %30.06 in10.0 miWest (260°)6.9 mphClear
5:36 AM30.2 °F17.6 °F60 %30.07 in10.0 miWest (280°)9.2 mph16.1 mphClear
5:55 AM30.2 °F17.6 °F60 %30.09 in10.0 miWest (280°)8.1 mphClear
6:15 AM30.2 °F17.6 °F60 %30.09 in10.0 miWSW (250°)5.8 mphClear
6:55 AM28.4 °F17.6 °F64 %30.11 in10.0 miWSW (240°)8.1 mphClear
7:15 AM28.4 °F17.6 °F64 %30.12 in10.0 miWSW (250°)8.1 mphClear
7:35 AM30.2 °F17.6 °F60 %30.12 in10.0 miWSW (250°)6.9 mphClear
8:15 AM30.2 °F17.6 °F60 %30.15 in10.0 miWSW (250°)12.7 mphClear
8:35 AM32.0 °F17.6 °F55 %30.16 in10.0 miWest (260°)13.8 mph18.4 mphClear
9:15 AM33.8 °F19.4 °F56 %30.15 in10.0 miWSW (240°)9.2 mph16.1 mphClear
9:35 AM35.6 °F19.4 °F52 %30.16 in10.0 miWSW (240°)12.7 mphClear
9:55 AM35.6 °F19.4 °F52 %30.17 in10.0 miWSW (250°)12.7 mphClear
10:16 AM37.4 °F19.4 °F48 %30.17 in10.0 miWSW (240°)13.8 mphClear
10:35 AM37.4 °F21.2 °F52 %30.18 in10.0 miWest (260°)11.5 mph17.3 mphClear
10:55 AM39.2 °F21.2 °F49 %30.17 in10.0 miSW (230°)10.4 mphClear
11:35 AM39.2 °F21.2 °F49 %30.15 in10.0 miSW (230°)12.7 mph18.4 mphClear
11:55 AM41.0 °F21.2 °F45 %30.15 in10.0 miSW (230°)12.7 mphClear
12:15 PM42.8 °F21.2 °F42 %30.13 in10.0 miWSW (250°)11.5 mphClear
12:35 PM42.8 °F23.0 °F46 %30.12 in10.0 miWSW (240°)11.5 mph16.1 mphClear
12:55 PM44.6 °F21.2 °F39 %30.10 in10.0 miSW (230°)10.4 mphClear
1:15 PM44.6 °F24.8 °F46 %30.08 in10.0 miSW (230°)6.9 mphClear
1:36 PM46.4 °F23.0 °F40 %30.08 in10.0 miSW (220°)11.5 mph17.3 mphClear
1:55 PM48.2 °F24.8 °F40 %30.06 in10.0 miWSW (250°)16.1 mphClear
2:15 PM48.2 °F24.8 °F40 %30.05 in10.0 miSW (230°)15.0 mph20.7 mphClear
2:35 PM48.2 °F24.8 °F40 %30.05 in10.0 miWSW (240°)16.1 mph25.3 mphClear
2:55 PM50.0 °F26.6 °F40 %30.05 in10.0 miWSW (240°)16.1 mph21.9 mphClear
3:15 PM48.2 °F26.6 °F43 %30.07 in10.0 miWSW (250°)16.1 mph24.2 mphClear
3:35 PM50.0 °F28.4 °F43 %30.08 in10.0 miWSW (240°)15.0 mph20.7 mphClear
3:55 PM50.0 °F28.4 °F43 %30.07 in10.0 miWSW (240°)13.8 mph21.9 mphMostly Cloudy
4:35 PM48.2 °F28.4 °F46 %30.08 in10.0 miWest (280°)15.0 mph18.4 mphClear
4:55 PM48.2 °F28.4 °F46 %30.08 in10.0 miWest (280°)9.2 mph16.1 mphClear
5:15 PM46.4 °F28.4 °F50 %30.09 in10.0 miWest (280°)6.9 mphPartly Cloudy
5:35 PM46.4 °F28.4 °F50 %30.09 in10.0 miWest (270°)6.9 mphClear
5:55 PM46.4 °F28.4 °F50 %30.10 in10.0 miWest (270°)8.1 mphMostly Cloudy
6:15 PM46.4 °F28.4 °F50 %30.11 in10.0 miWNW (290°)4.6 mphOvercast
6:35 PM46.4 °F28.4 °F50 %30.12 in10.0 miWNW (300°)9.2 mph16.1 mphOvercast
7:15 PM41.0 °F26.6 °F57 %30.18 in10.0 miNW (320°)16.1 mph27.6 mphOvercast
7:35 PM39.2 °F24.8 °F56 %30.20 in10.0 miNW (310°)19.6 mph27.6 mphMostly Cloudy
7:55 PM37.4 °F23.0 °F56 %30.21 in10.0 miNW (310°)16.1 mph24.2 mphOvercast
8:15 PM35.6 °F23.0 °F60 %30.23 in5.0 miNW (310°)13.8 mph26.5 mphOvercast
8:35 PM0.0 °F0.0 °F30.23 in5.0 miWNW (300°)12.7 mph19.6 mphOvercast
9:16 PM33.8 °F23.0 °F65 %30.27 in10.0 miNW (310°)9.2 mphOvercast
9:35 PM33.8 °F19.4 °F56 %30.28 in10.0 miNNW (340°)13.8 mph21.9 mphOvercast
10:35 PM30.2 °F12.2 °F47 %30.33 in10.0 miNNW (340°)16.1 mph24.2 mphPartly Cloudy
10:55 PM28.4 °F10.4 °F47 %30.33 in10.0 miNNW (330°)17.3 mph25.3 mphClear
11:35 PM26.6 °F8.6 °F47 %30.35 in10.0 miNNW (330°)12.7 mph20.7 mphClear
Hourly data recorded from KDYR, located miles away from Dyersburg, Tennessee







STORIES FROM OUR PARTNERS